Back to Previous

Regional Weather Roundup

830 
ASUS44 KLZK 060905
RWRLZK

WEATHER ROUNDUP FOR ARKANSAS
NATIONAL WEATHER SERVICE LITTLE ROCK AR
300 AM CST SAT FEB 06 2016

NOTE: "FAIR" INDICATES FEW OR NO CLOUDS BELOW 12,000 FEET WITH NO
SIGNIFICANT WEATHER AND/OR OBSTRUCTIONS TO VISIBILITY.

ARZ001-003-010-029-061000-
NORTHWEST ARKANSAS
  
CITY           SKY/WX    TMP DP  RH WIND       PRES   REMARKS
FAYETTEVILLE   PTCLDY    25  20  81 CALM      30.31S                  
FORT SMITH     CLOUDY    37  22  54 NE6       30.33S                  
HARRISON       CLOUDY    41  15  35 SW6       30.30F                  
BENTONVILLE    CLOUDY   N/A N/A N/A CALM      30.30S                  
ROGERS         MOCLDY    31  21  66 SE3       30.30S                  
SILOAM SPGS    CLOUDY    34  16  47 CALM      30.30S                  
HIGHFILL       CLOUDY    32  22  66 CALM      30.29S                  
$$

ARZ004-005-016-061000-
NORTH CENTRAL ARKANSAS
  
CITY           SKY/WX    TMP DP  RH WIND       PRES   REMARKS
BATESVILLE     MOCLDY    37  19  48 CALM      30.35F                  
FLIPPIN        PTCLDY    30  19  64 CALM      30.30F                  
MTN HOME       PTCLDY    34  16  47 S5        30.30F WCI  30          
$$

ARZ040-041-061000-
WEST CENTRAL ARKANSAS
  
CITY           SKY/WX    TMP DP  RH WIND       PRES   REMARKS
MENA           PTCLDY    30  23  74 CALM      30.30F                  
MOUNT IDA      PTCLDY    27  21  78 CALM      30.29F                  
$$

ARZ009-017-025-026-028-061000-
NORTHEAST ARKANSAS
  
CITY           SKY/WX    TMP DP  RH WIND       PRES   REMARKS
CORNING        FAIR      32  27  80 SW7       30.35S WCI  26          
JONESBORO      CLEAR     30  25  81 CALM      30.35F                  
NEWPORT        CLEAR     34  24  67 SW3       30.36F                  
WALNUT RIDGE   CLEAR     32  21  64 SW5       30.36S WCI  27          
BLYTHEVILLE    PTCLDY    37  25  61 S5        30.36F                  
$$

ARZ022-023-033-042-044-061000-
CENTRAL ARKANSAS
  
CITY           SKY/WX    TMP DP  RH WIND       PRES   REMARKS
LITTLE ROCK    MOCLDY    32  24  72 CALM      30.36F                  
N LITTLE ROCK    N/A     37  23  57 S5        30.36F                  
JACKSONVILLE   MOCLDY    27  22  84 CALM      30.34F                  
SEARCY         PTCLDY    27  25  93 CALM      30.37F                  
HOT SPRINGS    PTCLDY    32  23  69 CALM      30.33F                  
RUSSELLVILLE   CLOUDY    29  24  82 CALM      30.33S                  
CLINTON        FAIR      25  23  93 CALM      30.36S                  
$$

ARZ036-061000-
EAST ARKANSAS
  
CITY           SKY/WX    TMP DP  RH WIND       PRES   REMARKS
WEST MEMPHIS   PTCLDY    34  28  79 CALM      30.36S                  
$$

ARZ050-053-066-070-073-061000-
SOUTHWEST ARKANSAS
  
CITY           SKY/WX    TMP DP  RH WIND       PRES   REMARKS
ARKADELPHIA    FAIR      32  27  82 NE3       30.35S                  
CAMDEN         PTCLDY    27  23  86 CALM      30.34F                  
TEXARKANA      CLOUDY    39  23  52 E5        30.30S                  
EL DORADO      CLEAR     32  25  75 CALM      30.33F                  
DE QUEEN       CLOUDY    32  28  85 CALM      30.31S                  
$$

ARZ056-057-069-061000-
SOUTHEAST ARKANSAS
  
CITY           SKY/WX    TMP DP  RH WIND       PRES   REMARKS
PINE BLUFF     CLEAR     32  26  78 CALM      30.36S                  
STUTTGART      CLEAR     37  27  65 SE3       30.36S                  
MONTICELLO     CLOUDY    35  27  72 SE3       30.35F                  

$$


  


USA.gov is the U.S. government's official web portal to all federal, state and local government web resources and services.